Wind_Speed
49 50 51 52 53 54 54 54 54 55 55 55 55 54 55 56 56 55 56 57 62 61 62 64 64 65 65 67 68 69 68 69 69
51 52 53 53 53 53 55 56 56 55 55 54 53 56 58 58 59 61 60 61 65 65 65 65 69 69 68 67 71 72 69 68 67
51 52 54 54 54 55 57 57 55 55 56 57 61 62 62 61 62 64 64 66 67 68 68 70 71 71 71 71 72 71 71 68 65
55 56 57 59 60 61 61 61 60 60 62 63 64 65 64 66 67 67 65 67 70 71 72 72 73 73 73 74 73 71 68 65 61
61 60 61 63 63 63 63 62 63 64 63 64 66 67 67 68 70 69 69 70 70 70 70 70 71 73 74 73 72 67 63 60 58
63 64 63 64 63 62 64 63 64 65 66 68 68 67 69 69 70 69 71 70 72 70 69 69 69 72 70 67 64 62 59 58 57
63 62 62 62 61 63 65 67 67 68 69 71 72 71 72 71 71 69 69 71 67 67 70 72 71 67 62 59 56 57 56 56 55
63 65 66 66 66 67 67 67 69 71 71 71 71 70 69 70 67 68 71 66 68 71 73 65 60 58 56 55 53 53 52 53 52
67 68 68 68 69 69 71 71 72 72 73 73 71 67 69 68 67 69 69 72 71 67 62 60 59 54 53 52 50 49 47 47 49
69 68 70 70 70 72 75 75 74 73 72 71 71 70 70 67 69 68 70 70 67 64 59 58 56 54 48 46 46 45 44 44 45
72 73 72 75 75 74 77 75 73 73 70 71 72 70 65 67 67 66 66 63 63 59 56 53 50 50 49 47 44 44 45 47 47
75 74 74 75 75 77 75 75 74 73 70 71 67 65 66 68 65 67 63 67 60 57 53 52 52 50 47 44 46 48 48 48 50
75 74 74 75 75 75 76 75 74 72 71 70 67 67 67 67 67 67 67 65 66 62 58 56 54 54 50 50 53 55 55 55 53
75 75 74 74 78 78 77 73 69 69 68 67 67 69 69 69 71 69 71 69 66 64 64 64 62 60 59 60 61 61 57 52 52
76 77 77 78 78 76 74 70 68 68 70 72 71 72 71 73 72 73 73 73 68 68 69 70 67 63 63 65 63 57 52 54 54
79 81 80 79 77 78 73 72 72 73 74 72 72 72 72 74 75 72 72 68 71 72 73 73 71 69 64 62 60 60 58 57 56
83 81 81 82 81 80 78 75 74 74 73 74 72 72 74 75 74 74 74 75 72 74 75 74 72 71 68 66 64 63 62 63 61
83 83 83 83 82 80 79 78 79 78 79 79 79 76 79 76 76 72 73 75 75 74 76 78 76 73 71 68 64 63 65 65 67
86 87 86 86 85 86 84 81 82 81 81 80 80 79 79 78 75 76 75 75 77 74 72 71 74 74 71 70 67 68 68 69 70
89 90 91 90 89 88 88 88 87 87 85 82 83 85 83 79 78 79 77 74 74 73 72 72 75 75 74 73 72 73 73 74 74
Wind_Direction
274 275 277 279 280 282 285 287 288 289 291 291 291 292 295 294 295 294 293 293 295 294 294 294 293 294 295 294 295 294 293 294 293
277 279 280 281 283 285 287 288 289 289 291 292 292 293 296 293 294 295 293 294 295 295 293 293 293 293 294 294 294 293 292 292 293
278 279 280 281 282 283 285 287 288 288 290 291 293 294 295 295 295 295 293 295 293 293 293 293 294 292 293 292 293 292 291 292 292
279 280 281 283 285 286 287 287 287 288 291 293 294 296 296 295 295 295 296 296 296 294 293 293 294 294 292 292 291 290 293 291 290
280 281 284 285 285 285 286 287 286 288 292 292 294 295 296 297 298 295 296 297 298 297 296 295 295 293 292 291 291 291 289 289 288
280 282 284 285 286 287 288 289 290 291 293 294 296 297 298 296 297 299 299 300 300 296 296 295 294 292 293 292 289 290 289 287 286
281 281 283 285 286 287 289 290 293 294 296 297 297 297 298 299 300 301 301 300 298 297 298 298 296 295 292 292 292 288 287 287 287
280 281 282 285 287 289 291 295 294 295 298 298 298 297 299 301 299 298 299 296 299 300 301 299 301 295 294 294 291 291 289 287 288
282 283 284 286 288 290 292 295 296 297 297 299 299 298 299 299 296 297 298 300 303 302 300 300 301 298 295 294 294 294 293 292 291
285 287 289 289 290 291 294 296 296 297 298 297 297 297 298 298 300 298 302 304 304 303 302 301 299 299 297 297 296 296 293 295 294
287 288 288 290 291 292 294 295 296 296 295 294 296 298 297 299 299 300 308 311 305 305 301 297 297 297 297 296 295 295 292 292 296
286 287 287 289 289 292 293 293 294 293 291 292 294 294 297 299 300 306 306 317 308 303 300 297 296 296 297 294 292 289 296 294 294
286 286 287 289 288 289 289 289 292 292 291 291 293 295 298 302 302 306 307 308 315 300 299 301 298 293 295 296 298 299 299 293 293
286 286 286 286 286 288 289 291 290 289 290 292 292 295 298 301 303 303 306 306 307 302 296 296 296 294 291 295 298 298 300 301 298
284 284 284 286 286 288 288 288 286 286 288 291 292 295 296 300 301 302 302 303 301 300 296 295 295 293 292 292 295 297 296 299 301
281 282 283 284 284 284 285 285 285 285 288 290 289 292 294 297 299 297 297 295 296 296 294 294 293 293 293 296 296 299 299 299 301
280 281 282 282 282 283 284 284 286 285 287 289 289 288 290 292 293 293 293 291 295 291 291 292 293 293 295 295 297 298 297 300 301
278 279 281 281 282 283 282 282 284 284 285 285 289 287 290 290 290 290 290 292 292 292 292 293 294 295 295 297 297 296 297 298 298
277 279 279 279 279 281 282 283 283 284 283 284 284 286 287 290 286 287 287 288 287 291 293 293 294 294 294 296 296 296 296 297 296
277 277 277 278 278 278 279 280 280 281 282 281 284 285 287 285 282 282 286 285 285 286 287 290 289 291 292 293 292 292 292 294 294
Height
10908 10907 10905 10904 10903 10901 10899 10897 10895 10893 10890 10888 10886 10883 10879 10876 10872 10869 10866 10863 10859 10855 10851 10847 10843 10837 10834 10831 10826 10822 10818 10814 10811
10901 10900 10898 10896 10894 10893 10891 10889 10886 10883 10880 10878 10875 10873 10869 10865 10862 10858 10855 10851 10845 10841 10838 10835 10829 10824 10820 10818 10814 10809 10805 10801 10798
10893 10892 10890 10888 10886 10884 10881 10879 10876 10873 10871 10868 10865 10862 10859 10854 10851 10847 10844 10839 10833 10829 10825 10822 10816 10810 10806 10802 10799 10795 10791 10787 10784
10884 10882 10881 10879 10877 10874 10872 10870 10867 10864 10861 10857 10854 10850 10847 10843 10838 10834 10831 10826 10820 10814 10811 10807 10802 10796 10792 10788 10784 10782 10777 10774 10771
10874 10873 10871 10868 10866 10864 10862 10859 10857 10854 10851 10847 10843 10839 10835 10831 10827 10822 10819 10813 10807 10801 10797 10793 10787 10782 10778 10774 10769 10767 10764 10761 10759
10865 10862 10860 10858 10856 10853 10850 10848 10846 10843 10839 10835 10832 10827 10823 10818 10813 10808 10805 10800 10793 10788 10782 10779 10774 10768 10763 10759 10756 10754 10751 10749 10746
10854 10851 10849 10847 10845 10841 10838 10835 10833 10830 10826 10822 10817 10813 10809 10803 10798 10793 10790 10788 10779 10774 10769 10764 10760 10755 10750 10747 10743 10741 10738 10736 10734
10843 10841 10838 10835 10832 10828 10825 10823 10820 10816 10812 10808 10804 10799 10794 10789 10784 10780 10775 10773 10768 10760 10754 10750 10747 10742 10738 10735 10732 10729 10726 10724 10722
10831 10828 10826 10823 10819 10815 10812 10810 10807 10803 10798 10795 10791 10787 10782 10777 10772 10767 10761 10758 10753 10748 10743 10739 10735 10731 10728 10725 10721 10718 10715 10713 10711
10817 10815 10811 10809 10806 10801 10799 10796 10793 10790 10785 10781 10779 10775 10771 10765 10760 10755 10750 10745 10740 10736 10731 10728 10724 10722 10718 10715 10711 10708 10705 10703 10700
10804 10801 10798 10795 10792 10787 10784 10783 10779 10776 10772 10768 10765 10762 10757 10753 10748 10744 10739 10733 10728 10724 10720 10717 10714 10712 10709 10705 10702 10699 10696 10693 10689
10789 10787 10783 10782 10780 10775 10771 10769 10765 10762 10759 10755 10753 10749 10745 10741 10736 10733 10728 10724 10719 10714 10711 10708 10705 10702 10698 10695 10692 10689 10686 10683 10680
10773 10772 10770 10768 10766 10763 10759 10756 10753 10750 10745 10742 10740 10737 10733 10728 10724 10720 10718 10714 10709 10705 10701 10698 10694 10691 10688 10684 10681 10678 10675 10672 10670
10758 10757 10756 10755 10751 10748 10745 10742 10740 10735 10732 10729 10726 10722 10719 10715 10711 10707 10704 10701 10697 10694 10690 10686 10683 10680 10676 10672 10670 10666 10663 10660 10657
10743 10741 10741 10740 10736 10734 10731 10728 10725 10722 10719 10716 10713 10708 10704 10700 10697 10693 10689 10685 10683 10679 10676 10673 10669 10667 10664 10661 10657 10654 10652 10648 10645
10728 10725 10723 10725 10721 10717 10717 10713 10710 10708 10706 10703 10699 10696 10691 10687 10683 10680 10676 10672 10669 10666 10661 10658 10654 10652 10650 10647 10644 10640 10638 10635 10632
10712 10711 10708 10705 10703 10702 10699 10697 10694 10692 10690 10687 10685 10682 10678 10674 10671 10666 10662 10656 10655 10650 10646 10643 10640 10636 10634 10632 10629 10626 10624 10620 10618
10696 10693 10691 10686 10684 10683 10682 10680 10678 10676 10674 10670 10669 10667 10663 10658 10656 10652 10647 10641 10636 10632 10628 10624 10622 10619 10616 10616 10614 10611 10609 10606 10603
10677 10676 10675 10673 10669 10665 10663 10660 10660 10660 10656 10655 10650 10650 10648 10643 10640 10637 10632 10628 10623 10618 10613 10608 10605 10602 10601 10599 10597 10594 10592 10589 10586
10659 10656 10654 10653 10652 10649 10647 10644 10641 10640 10640 10637 10635 10632 10630 10628 10623 10620 10614 10612 10607 10604 10600 10596 10591 10588 10587 10585 10583 10579 10576 10573 10570